period_start,C,m1,H,J0,J1,J2,J3,J4,J5,JA,JB,JC,JD,JJ,JK,JN,#
2014-04-11 00:00:39,0.30,3.29,0.00,22.62,28.15,30.97,5.89,30.96,989.83,2034.27,2332.27,2487.65,2682.27,349.72,315.59,23.42,0000 0000 0000 0000 000000
2014-04-11 00:01:40,0.34,3.29,0.00,22.62,28.15,30.99,6.07,31.17,989.77,2034.26,2331.78,2487.24,2682.00,350.98,316.56,23.43,0000 0000 0000 0000 000000
2014-04-11 00:02:40,0.30,3.29,0.00,22.62,28.15,30.96,5.90,31.08,989.76,2034.20,2331.27,2487.02,2681.46,350.97,316.88,23.43,0000 0000 0000 0000 000000
2014-04-11 00:03:40,0.25,3.29,0.00,22.62,28.15,30.96,6.02,31.00,989.76,2034.14,2330.73,2486.57,2681.17,350.16,316.16,23.44,0000 0000 0000 0000 000000
2014-04-11 00:04:41,0.27,3.30,0.00,22.62,28.15,30.95,6.08,31.08,989.76,2034.12,2330.22,2486.21,2680.80,351.33,316.57,23.44,0000 0000 0000 0000 000000
2014-04-11 00:05:41,0.30,3.30,0.00,22.62,28.15,30.94,6.08,31.13,989.76,2034.18,2329.62,2486.02,2680.31,351.20,316.55,23.45,0000 0000 0000 0000 000000
2014-04-11 00:06:41,0.33,3.30,0.00,22.62,28.15,30.94,5.87,30.96,989.73,2034.26,2329.19,2485.58,2680.11,350.55,316.38,23.46,0000 0000 0000 0000 000000
2014-04-11 00:07:41,0.33,3.30,0.00,22.62,28.15,30.94,5.88,31.08,989.68,2034.26,2328.58,2485.21,2679.82,350.14,315.92,23.46,0000 0000 0000 0000 000000
2014-04-11 00:08:42,0.35,3.30,0.00,22.62,28.15,30.95,5.95,31.08,989.45,2034.24,2328.16,2484.99,2679.32,350.85,316.48,23.47,0000 0000 0000 0000 000000
2014-04-11 00:09:42,0.32,3.30,0.00,22.62,28.15,30.95,5.88,30.88,989.39,2034.24,2327.52,2484.48,2679.03,349.58,315.31,23.47,0000 0000 0000 0000 000000
2014-04-11 00:10:42,0.30,3.31,0.00,22.62,28.15,30.97,5.71,31.00,989.28,2034.22,2327.06,2484.18,2678.49,350.11,315.76,23.48,0000 0000 0000 0000 000000
2014-04-11 00:11:43,0.29,3.31,0.00,22.62,28.15,30.97,5.83,31.33,989.27,2034.16,2326.45,2483.96,2678.17,350.27,315.78,23.49,0000 0000 0000 0000 000000
2014-04-11 00:12:43,0.21,3.31,0.00,22.62,28.15,30.97,5.80,30.88,989.27,2034.10,2326.01,2483.50,2677.83,350.20,316.01,23.49,0000 0000 0000 0000 000000
2014-04-11 00:13:43,0.28,3.31,0.00,22.63,28.15,30.93,5.85,31.00,989.27,2034.07,2325.41,2483.17,2677.31,350.46,316.07,23.50,0000 0000 0000 0000 000000
2014-04-11 00:14:43,0.29,3.31,0.00,22.64,28.15,30.94,5.93,31.00,989.26,2034.09,2324.91,2482.88,2677.07,350.61,316.19,23.50,0000 0000 0000 0000 000000
2014-04-11 00:15:44,0.35,3.32,0.00,22.64,28.16,30.95,5.85,30.96,989.13,2034.13,2324.33,2482.36,2676.56,349.83,315.43,23.51,0000 0000 0000 0000 000000
2014-04-11 00:16:44,0.34,3.32,0.00,22.64,28.16,30.92,5.90,30.92,988.91,2034.08,2323.78,2482.13,2676.20,349.64,315.19,23.52,0000 0000 0000 0000 000000
2014-04-11 00:17:44,0.25,3.32,0.00,22.65,28.16,30.91,6.03,31.17,988.84,2034.08,2323.27,2481.82,2675.95,349.97,315.46,23.52,0000 0000 0000 0000 000000
2014-04-11 00:18:44,0.31,3.32,0.00,22.65,28.17,30.92,5.98,30.96,988.79,2034.07,2322.70,2481.36,2675.44,350.22,315.67,23.53,0000 0000 0000 0000 000000
2014-04-11 00:19:45,0.34,3.32,0.00,22.65,28.17,30.91,5.97,31.08,988.78,2034.07,2322.24,2481.12,2675.15,349.98,315.45,23.53,0000 0000 0000 0000 000000
2014-04-11 00:20:45,0.27,3.32,0.00,22.65,28.17,30.93,5.96,30.96,988.76,2034.13,2321.73,2480.80,2674.72,349.71,315.20,23.54,0000 0000 0000 0000 000000
2014-04-11 00:21:45,0.37,3.33,0.00,22.65,28.17,30.95,5.68,31.08,988.70,2034.07,2321.24,2480.32,2674.26,348.59,314.18,23.54,0000 0000 0000 0000 000000
2014-04-11 00:22:45,0.27,3.33,0.00,22.66,28.17,30.90,5.72,30.92,988.54,2034.06,2320.64,2480.10,2674.05,349.12,314.25,23.55,0000 0000 0000 0000 000000
2014-04-11 00:23:46,0.24,3.33,0.00,22.67,28.17,30.91,5.73,30.96,988.35,2034.05,2320.17,2479.76,2673.55,349.37,315.17,23.56,0000 0000 0000 0000 000000
2014-04-11 00:24:46,0.35,3.33,0.00,22.66,28.17,30.92,5.78,31.08,988.31,2034.04,2319.52,2479.30,2673.20,350.64,315.81,23.56,0000 0000 0000 0000 000000
2014-04-11 00:25:46,0.30,3.33,0.00,22.66,28.17,30.94,5.99,31.33,988.30,2034.02,2319.08,2479.05,2672.84,350.77,315.99,23.57,0000 0000 0000 0000 000000
2014-04-11 00:26:46,0.31,3.34,0.00,22.67,28.17,30.95,6.04,31.29,988.25,2034.04,2318.49,2478.67,2672.33,350.62,316.15,23.57,0000 0000 0000 0000 000000
2014-04-11 00:27:47,0.35,3.34,0.00,22.66,28.17,30.93,5.87,31.38,988.05,2034.02,2318.09,2478.25,2672.10,349.92,315.16,23.58,0000 0000 0000 0000 000000
2014-04-11 00:28:47,0.28,3.34,0.00,22.65,28.17,30.92,5.89,31.25,987.86,2034.05,2317.48,2478.07,2671.67,350.79,315.89,23.59,0000 0000 0000 0000 000000
2014-04-11 00:29:47,0.29,3.34,0.00,22.65,28.17,30.93,5.92,31.46,987.81,2034.04,2317.04,2477.62,2671.25,349.83,314.87,23.59,0000 0000 0000 0000 000000
2014-04-11 00:30:47,0.34,3.34,0.00,22.64,28.17,30.94,5.87,31.58,987.79,2034.03,2316.42,2477.22,2670.91,349.74,314.93,23.60,0000 0000 0000 0000 000000
2014-04-11 00:31:48,0.30,3.34,0.00,22.64,28.17,30.94,5.98,31.42,987.63,2034.02,2315.96,2477.00,2670.39,350.38,315.92,23.60,0000 0000 0000 0000 000000
2014-04-11 00:32:48,0.30,3.35,0.00,22.64,28.17,30.95,5.82,31.04,987.50,2034.03,2315.37,2476.50,2670.13,349.49,314.53,23.61,0000 0000 0000 0000 000000
2014-04-11 00:33:48,0.31,3.35,0.00,22.64,28.17,30.95,5.87,31.13,987.35,2034.03,2314.89,2476.17,2669.76,349.62,314.68,23.61,0000 0000 0000 0000 000000
2014-04-11 00:34:48,0.32,3.35,0.00,22.64,28.17,30.97,6.06,31.38,987.33,2034.04,2314.32,2475.98,2669.29,350.29,315.27,23.62,0000 0000 0000 0000 000000
2014-04-11 00:35:49,0.30,3.35,0.00,22.64,28.17,30.92,5.96,31.46,987.32,2034.03,2313.77,2475.47,2669.08,350.01,315.02,23.63,0000 0000 0000 0000 000000
2014-04-11 00:36:49,0.32,3.35,0.00,22.64,28.17,30.93,5.89,31.25,987.30,2034.01,2313.28,2475.16,2668.53,350.20,315.18,23.63,0000 0000 0000 0000 000000
2014-04-11 00:37:49,0.28,3.36,0.00,22.64,28.17,30.92,6.05,31.58,987.21,2034.01,2312.71,2474.78,2668.09,350.65,315.56,23.64,0000 0000 0000 0000 000000
2014-04-11 00:38:49,0.40,3.36,0.00,22.62,28.17,30.95,5.97,31.25,987.11,2034.01,2312.09,2474.27,2667.46,350.47,315.39,23.64,0000 0000 0000 0000 000000
2014-04-11 00:39:50,0.42,3.36,0.00,22.62,28.17,30.95,5.80,31.50,986.89,2034.02,2311.42,2473.79,2667.11,350.13,315.02,23.65,0000 0000 0000 0000 000000
2014-04-11 00:40:50,0.40,3.36,0.00,22.62,28.17,30.95,5.98,31.46,986.83,2034.02,2310.90,2473.30,2666.51,350.40,315.33,23.66,0000 0000 0000 0000 000000
2014-04-11 00:41:51,0.38,3.36,0.00,22.62,28.17,30.92,5.93,31.21,986.83,2034.02,2310.33,2473.01,2666.18,350.45,315.29,23.66,0000 0000 0000 0000 000000
2014-04-11 00:42:51,0.30,3.37,0.00,22.62,28.17,30.93,6.02,31.29,986.83,2034.02,2309.80,2472.51,2665.76,350.01,314.64,23.67,0000 0000 0000 0000 000000
2014-04-11 00:43:51,0.37,3.37,0.00,22.62,28.17,30.92,6.01,31.13,986.82,2034.03,2309.29,2472.18,2665.29,350.78,315.55,23.67,0000 0000 0000 0000 000000
2014-04-11 00:44:51,0.28,3.37,0.00,22.62,28.17,30.95,5.91,30.88,986.80,2034.01,2308.78,2471.93,2665.04,350.67,315.47,23.68,0000 0000 0000 0000 000000
2014-04-11 00:45:52,0.30,3.37,0.00,22.64,28.17,30.93,5.89,31.00,986.69,2034.02,2308.25,2471.43,2664.53,350.89,315.47,23.69,0000 0000 0000 0000 000000
2014-04-11 00:46:52,0.37,3.37,0.00,22.64,28.17,30.94,5.77,31.00,986.67,2034.03,2307.63,2471.15,2664.19,348.46,313.43,23.69,0000 0000 0000 0000 000000
2014-04-11 00:47:52,0.31,3.38,0.00,22.63,28.17,30.96,5.93,31.08,986.52,2034.05,2307.19,2470.88,2663.87,350.45,315.23,23.70,0000 0000 0000 0000 000000
2014-04-11 00:48:53,0.31,3.38,0.00,22.63,28.17,30.94,5.92,31.13,986.39,2034.06,2306.60,2470.37,2663.35,350.42,314.80,23.70,0000 0000 0000 0000 000000
2014-04-11 00:49:53,0.36,3.38,0.00,22.64,28.17,30.94,5.89,31.29,986.38,2034.03,2306.11,2470.11,2663.09,349.15,314.24,23.71,0000 0000 0000 0000 000000
2014-04-11 00:50:53,0.26,3.38,0.00,22.64,28.17,30.97,6.03,31.33,986.36,2034.02,2305.48,2469.76,2662.61,351.17,315.79,23.71,0000 0000 0000 0000 000000
2014-04-11 00:51:53,0.35,3.38,0.00,22.64,28.17,30.95,5.83,31.21,986.36,2034.02,2305.01,2469.31,2662.22,348.97,313.78,23.72,0000 0000 0000 0000 000000
2014-04-11 00:52:54,0.33,3.39,0.00,22.64,28.17,30.94,5.75,31.13,986.34,2034.01,2304.39,2468.85,2661.68,349.95,314.66,23.73,0000 0000 0000 0000 000000
2014-04-11 00:53:54,0.42,3.39,0.00,22.64,28.17,30.94,5.57,31.04,986.34,2034.01,2303.72,2468.32,2661.23,349.69,314.42,23.73,0000 0000 0000 0000 000000
2014-04-11 00:54:54,0.37,3.39,0.00,22.64,28.17,30.95,5.89,30.88,986.34,2034.02,2303.25,2468.06,2660.79,349.91,314.62,23.74,0000 0000 0000 0000 000000
2014-04-11 00:55:54,0.29,3.39,0.00,22.64,28.17,30.96,5.77,31.46,986.29,2034.02,2302.78,2467.68,2660.31,349.21,313.97,23.74,0000 0000 0000 0000 000000
2014-04-11 00:56:54,0.36,3.39,0.00,22.65,28.17,30.96,5.86,30.96,986.21,2034.04,2302.29,2467.25,2660.08,349.93,314.59,23.75,0000 0000 0000 0000 000000
2014-04-11 00:57:55,0.27,3.40,0.00,22.66,28.17,30.95,5.86,31.25,985.92,2034.03,2301.74,2466.84,2659.58,349.44,314.05,23.76,0000 0000 0000 0000 000000
2014-04-11 00:58:55,0.42,3.40,0.00,22.67,28.17,30.94,5.65,31.13,985.88,2034.02,2301.18,2466.33,2659.18,349.33,313.93,23.76,0000 0000 0000 0000 000000
2014-04-11 00:59:55,0.33,3.40,0.00,22.68,28.17,30.92,5.88,31.21,985.89,2034.01,2300.52,2465.91,2658.60,350.00,314.51,23.77,0000 0000 0000 0000 000000
2014-04-11 01:00:55,0.43,3.40,0.00,22.69,28.17,30.93,6.01,31.08,985.89,2034.01,2300.02,2465.36,2658.19,350.73,314.69,23.77,0000 0000 0000 0000 000000
2014-04-11 01:01:55,0.36,3.41,0.00,22.69,28.17,30.95,5.78,30.88,985.86,2034.00,2299.39,2465.13,2657.62,349.91,314.41,23.78,0000 0000 0000 0000 000000
2014-04-11 01:02:56,0.31,3.41,0.00,22.69,28.17,30.96,5.80,31.04,985.86,2034.00,2298.75,2464.73,2657.22,349.18,314.00,23.78,0000 0000 0000 0000 000000
2014-04-11 01:03:56,0.38,3.41,0.00,22.69,28.17,30.94,5.94,31.21,985.85,2034.01,2298.27,2464.29,2656.93,349.39,313.94,23.79,0000 0000 0000 0000 000000
2014-04-11 01:04:56,0.31,3.41,0.00,22.69,28.17,30.94,6.04,31.42,985.85,2034.01,2297.68,2463.98,2656.39,350.52,314.66,23.80,0000 0000 0000 0000 000000
2014-04-11 01:05:56,0.36,3.41,0.00,22.70,28.17,30.95,5.68,31.42,985.85,2034.00,2297.15,2463.46,2656.04,349.48,313.86,23.80,0000 0000 0000 0000 000000
2014-04-11 01:06:57,0.36,3.42,0.00,22.71,28.17,30.94,5.94,31.50,985.86,2034.01,2296.48,2463.14,2655.48,350.40,314.83,23.81,0000 0000 0000 0000 000000
2014-04-11 01:07:57,0.35,3.42,0.00,22.72,28.17,30.95,6.03,31.42,985.86,2034.01,2296.04,2462.70,2655.14,349.89,314.88,23.81,0000 0000 0000 0000 000000
2014-04-11 01:08:57,0.35,3.42,0.00,22.71,28.17,30.93,5.98,31.54,985.86,2034.02,2295.43,2462.26,2654.61,350.45,314.88,23.82,0000 0000 0000 0000 000000
2014-04-11 01:09:57,0.37,3.42,0.00,22.70,28.18,30.94,5.76,31.33,985.85,2034.01,2294.84,2462.01,2654.21,349.83,314.37,23.83,0000 0000 0000 0000 000000
2014-04-11 01:10:58,0.34,3.42,0.00,22.70,28.18,30.95,5.98,31.38,985.86,2034.01,2294.30,2461.51,2653.86,350.43,315.10,23.83,0000 0000 0000 0000 000000
2014-04-11 01:11:58,0.33,3.43,0.00,22.70,28.18,30.96,5.83,31.17,985.86,2034.00,2293.74,2461.20,2653.35,350.32,314.78,23.84,0000 0000 0000 0000 000000
2014-04-11 01:12:58,0.32,3.43,0.00,22.70,28.18,30.97,5.78,31.33,985.86,2034.00,2293.20,2460.92,2653.08,348.87,313.69,23.84,0000 0000 0000 0000 000000
2014-04-11 01:13:58,0.29,3.43,0.00,22.71,28.18,30.96,5.98,31.04,985.86,2034.00,2292.55,2460.39,2652.60,350.45,314.88,23.85,0000 0000 0000 0000 000000
2014-04-11 01:14:58,0.40,3.43,0.00,22.72,28.19,30.94,5.91,31.33,985.87,2034.00,2292.11,2460.13,2652.20,350.23,314.67,23.86,0000 0000 0000 0000 000000
2014-04-11 01:15:59,0.26,3.43,0.00,22.72,28.19,30.95,5.89,31.04,985.87,2034.00,2291.43,2459.61,2651.63,349.64,313.71,23.86,0000 0000 0000 0000 000000
2014-04-11 01:16:59,0.48,3.44,0.00,22.72,28.20,30.97,5.77,31.17,985.86,2034.00,2290.63,2459.08,2651.12,349.47,313.99,23.87,0000 0000 0000 0000 000000
2014-04-11 01:17:59,0.46,3.44,0.00,22.72,28.20,30.96,5.78,31.25,985.86,2034.00,2290.15,2458.49,2650.53,349.87,314.34,23.87,0000 0000 0000 0000 000000
2014-04-11 01:18:59,0.42,3.44,0.00,22.72,28.20,30.96,5.62,31.08,985.86,2034.00,2289.50,2458.18,2650.19,349.21,313.54,23.88,0000 0000 0000 0000 000000
2014-04-11 01:20:00,0.31,3.44,0.00,22.72,28.20,30.97,5.81,31.21,985.85,2034.00,2289.03,2457.91,2649.81,348.82,314.51,23.88,0000 0000 0000 0000 000000
2014-04-11 01:21:00,0.34,3.45,0.00,22.72,28.20,31.01,5.94,31.25,985.85,2034.00,2288.42,2457.44,2649.32,350.13,314.58,23.89,0000 0000 0000 0000 000000
2014-04-11 01:22:00,0.35,3.45,0.00,22.72,28.20,31.01,5.95,31.29,985.85,2034.01,2287.93,2457.16,2649.01,350.13,314.81,23.90,0000 0000 0000 0000 000000
2014-04-11 01:23:01,0.30,3.45,0.00,22.72,28.20,31.04,5.92,31.04,985.85,2034.00,2287.33,2456.85,2648.45,350.24,314.67,23.90,0000 0000 0000 0000 000000
2014-04-11 01:24:01,0.35,3.45,0.00,22.72,28.20,31.05,5.66,31.33,985.84,2034.00,2286.67,2456.35,2648.14,349.44,313.78,23.91,0000 0000 0000 0000 000000
2014-04-11 01:25:01,0.37,3.45,0.00,22.72,28.20,31.03,5.83,31.13,985.84,2034.00,2286.16,2456.11,2647.67,350.32,314.74,23.91,0000 0000 0000 0000 000000
2014-04-11 01:26:01,0.30,3.45,0.00,22.72,28.20,31.07,5.77,31.17,985.75,2034.00,2285.50,2455.65,2647.25,349.57,314.05,23.92,0000 0000 0000 0000 000000
2014-04-11 01:27:02,0.40,3.46,0.00,22.74,28.20,31.00,5.78,31.25,985.75,2034.00,2285.04,2455.24,2646.99,349.10,313.60,23.93,0000 0000 0000 0000 000000
2014-04-11 01:28:02,0.30,3.46,0.00,22.74,28.20,31.07,6.04,31.50,985.74,2034.00,2284.41,2455.03,2646.47,349.98,314.41,23.93,0000 0000 0000 0000 000000
2014-04-11 01:29:02,0.31,3.46,0.00,22.74,28.20,31.04,5.97,31.42,985.71,2034.00,2283.93,2454.56,2646.16,351.37,315.80,23.94,0000 0000 0000 0000 000000
2014-04-11 01:30:02,0.35,3.46,0.00,22.75,28.20,31.02,5.97,31.46,985.65,2034.00,2283.34,2454.20,2645.75,350.40,314.73,23.94,0000 0000 0000 0000 000000
2014-04-11 01:31:03,0.33,3.46,0.00,22.76,28.20,31.03,6.04,31.67,985.58,2034.00,2282.71,2453.75,2645.28,350.19,314.78,23.95,0000 0000 0000 0000 000000
2014-04-11 01:32:03,0.41,3.47,0.00,22.77,28.20,31.04,5.90,31.46,985.54,2034.00,2282.12,2453.28,2644.88,349.47,313.87,23.96,0000 0000 0000 0000 000000
2014-04-11 01:33:03,0.36,3.47,0.00,22.77,28.20,31.02,5.83,31.50,985.64,2034.00,2281.48,2453.06,2644.36,349.47,313.86,23.96,0000 0000 0000 0000 000000
2014-04-11 01:34:03,0.31,3.47,0.00,22.77,28.20,31.03,6.00,31.38,985.75,2034.00,2280.97,2452.63,2644.09,350.09,314.45,23.97,0000 0000 0000 0000 000000
2014-04-11 01:35:04,0.36,3.47,0.00,22.77,28.20,31.03,6.02,31.42,985.69,2034.00,2280.39,2452.24,2643.65,350.67,314.96,23.97,0000 0000 0000 0000 000000
2014-04-11 01:36:04,0.33,3.48,0.00,22.77,28.20,31.04,5.90,31.54,985.63,2034.00,2279.90,2452.02,2643.23,349.65,313.86,23.98,0000 0000 0000 0000 000000
2014-04-11 01:37:04,0.27,3.48,0.00,22.77,28.21,31.03,5.92,31.71,985.60,2034.00,2279.34,2451.49,2642.92,350.38,314.67,23.98,0000 0000 0000 0000 000000
2014-04-11 01:38:04,0.39,3.48,0.00,22.77,28.21,31.03,6.09,31.54,985.67,2034.00,2278.75,2451.17,2642.41,350.60,314.88,23.99,0000 0000 0000 0000 000000
2014-04-11 01:39:05,0.34,3.48,0.00,22.78,28.22,31.01,5.81,31.00,985.78,2034.00,2278.21,2450.89,2642.11,349.75,314.31,24.00,0000 0000 0000 0000 000000
2014-04-11 01:40:05,0.26,3.48,0.00,22.78,28.22,30.99,5.86,31.21,985.79,2034.00,2277.55,2450.38,2641.62,350.18,314.54,24.00,0000 0000 0000 0000 000000
2014-04-11 01:41:05,0.46,3.49,0.00,22.77,28.22,31.02,5.83,31.29,985.80,2034.00,2277.08,2450.14,2641.23,350.08,314.50,24.01,0000 0000 0000 0000 000000
2014-04-11 01:42:05,0.24,3.49,0.00,22.77,28.22,31.04,5.92,31.29,985.80,2034.00,2276.45,2449.78,2640.91,350.40,314.76,24.01,0000 0000 0000 0000 000000
2014-04-11 01:43:05,0.38,3.49,0.00,22.77,28.22,31.01,6.08,31.46,985.72,2034.00,2275.91,2449.30,2640.38,350.82,315.10,24.02,0000 0000 0000 0000 000000
2014-04-11 01:44:06,0.38,3.49,0.00,22.77,28.22,30.97,5.67,31.33,985.60,2034.00,2275.33,2449.09,2640.08,348.70,312.97,24.03,0000 0000 0000 0000 000000
2014-04-11 01:45:06,0.22,3.49,0.00,22.77,28.22,30.96,5.72,31.29,985.57,2034.00,2274.75,2448.65,2639.56,350.18,314.65,24.03,0000 0000 0000 0000 000000
2014-04-11 01:46:06,0.46,3.50,0.00,22.77,28.22,31.00,5.83,31.29,985.46,2034.00,2274.15,2448.24,2639.19,349.91,314.38,24.04,0000 0000 0000 0000 000000
2014-04-11 01:47:06,0.31,3.50,0.00,22.77,28.22,31.00,5.82,31.21,985.56,2034.00,2273.46,2447.93,2638.79,349.68,313.54,24.04,0000 0000 0000 0000 000000
2014-04-11 01:48:07,0.37,3.50,0.00,22.77,28.22,31.01,5.79,31.29,985.54,2034.00,2272.90,2447.40,2638.30,349.39,313.76,24.05,0000 0000 0000 0000 000000
2014-04-11 01:49:07,0.42,3.50,0.00,22.77,28.22,31.05,5.81,31.13,985.59,2034.00,2272.32,2447.12,2637.98,350.04,314.52,24.05,0000 0000 0000 0000 000000
2014-04-11 01:50:07,0.26,3.50,0.00,22.79,28.22,31.02,5.88,31.21,985.46,2034.00,2271.76,2446.68,2637.41,350.26,314.12,24.06,0000 0000 0000 0000 000000
2014-04-11 01:51:07,0.45,3.51,0.00,22.80,28.22,31.01,6.02,31.46,985.43,2034.00,2271.23,2446.25,2637.13,350.14,314.68,24.07,0000 0000 0000 0000 000000
2014-04-11 01:52:08,0.27,3.51,0.00,22.80,28.22,31.02,5.70,31.00,985.46,2034.00,2270.56,2445.99,2636.64,349.14,313.79,24.07,0000 0000 0000 0000 000000
2014-04-11 01:53:08,0.37,3.51,0.00,22.80,28.22,31.06,5.96,31.67,985.48,2034.00,2270.00,2445.45,2636.22,349.83,314.50,24.08,0000 0000 0000 0000 000000
2014-04-11 01:54:08,0.41,3.51,0.00,22.81,28.22,31.07,5.96,31.33,985.48,2034.00,2269.38,2445.16,2635.82,350.14,313.97,24.08,0000 0000 0000 0000 000000
2014-04-11 01:55:08,0.31,3.51,0.00,22.81,28.22,31.04,5.72,31.25,985.41,2034.00,2268.81,2444.87,2635.32,349.59,313.86,24.09,0000 0000 0000 0000 000000
2014-04-11 01:56:08,0.34,3.52,0.00,22.80,28.22,31.04,6.03,31.42,985.42,2034.00,2268.24,2444.36,2635.07,351.01,315.15,24.10,0000 0000 0000 0000 000000
2014-04-11 01:57:09,0.34,3.52,0.00,22.79,28.22,31.02,5.83,31.25,985.51,2034.00,2267.58,2444.10,2634.54,349.42,313.75,24.10,0000 0000 0000 0000 000000
2014-04-11 01:58:09,0.37,3.52,0.00,22.79,28.22,31.00,6.02,31.42,985.46,2034.00,2267.05,2443.72,2634.18,350.52,314.73,24.11,0000 0000 0000 0000 000000
2014-04-11 01:59:09,0.33,3.52,0.00,22.78,28.22,30.99,5.67,31.33,985.38,2034.00,2266.40,2443.27,2633.69,348.82,313.19,24.11,0000 0000 0000 0000 000000
2014-04-11 02:00:09,0.41,3.52,0.00,22.79,28.22,31.02,5.92,31.38,985.39,2034.00,2265.69,2442.97,2633.25,349.93,314.54,24.12,0000 0000 0000 0000 000000
2014-04-11 02:01:10,0.35,3.53,0.00,22.79,28.22,31.00,5.68,31.33,985.38,2034.00,2265.18,2442.43,2632.94,349.16,313.44,24.12,0000 0000 0000 0000 000000
2014-04-11 02:02:10,0.36,3.53,0.00,22.79,28.22,30.99,5.84,31.29,985.37,2034.00,2264.53,2442.15,2632.40,350.91,315.25,24.13,0000 0000 0000 0000 000000
2014-04-11 02:03:10,0.38,3.53,0.00,22.79,28.22,30.98,5.97,31.17,985.37,2034.00,2264.00,2441.83,2632.09,350.15,314.36,24.14,0000 0000 0000 0000 000000
2014-04-11 02:04:10,0.30,3.53,0.00,22.79,28.22,30.97,5.70,31.25,985.37,2034.00,2263.38,2441.33,2631.60,349.29,313.59,24.14,0000 0000 0000 0000 000000
2014-04-11 02:05:11,0.42,3.54,0.00,22.79,28.22,30.99,6.01,31.08,985.37,2034.00,2262.73,2441.09,2631.22,351.29,315.38,24.15,0000 0000 0000 0000 000000
2014-04-11 02:06:11,0.30,3.54,0.00,22.79,28.22,30.99,5.92,31.33,985.37,2033.99,2262.23,2440.67,2630.82,350.36,314.41,24.15,0000 0000 0000 0000 000000
2014-04-11 02:07:11,0.34,3.54,0.00,22.79,28.22,31.00,5.68,31.13,985.36,2033.98,2261.59,2440.24,2630.31,349.43,313.72,24.16,0000 0000 0000 0000 000000
2014-04-11 02:08:12,0.41,3.54,0.00,22.78,28.22,30.97,5.87,31.13,985.36,2033.98,2261.07,2440.04,2630.03,349.35,313.65,24.17,0000 0000 0000 0000 000000
2014-04-11 02:09:12,0.20,3.54,0.00,22.77,28.22,31.01,5.64,31.29,985.35,2033.99,2260.42,2439.52,2629.50,348.52,313.29,24.17,0000 0000 0000 0000 000000
2014-04-11 02:10:12,0.49,3.55,0.00,22.77,28.22,30.96,5.99,31.21,985.35,2033.99,2259.85,2439.18,2629.18,350.54,314.43,24.18,0000 0000 0000 0000 000000
2014-04-11 02:11:12,0.30,3.55,0.00,22.77,28.22,30.94,5.93,31.29,985.31,2033.99,2259.30,2438.87,2628.81,351.12,314.91,24.18,0000 0000 0000 0000 000000
2014-04-11 02:12:13,0.31,3.55,0.00,22.77,28.22,30.97,5.68,31.04,985.30,2033.99,2258.69,2438.36,2628.30,349.76,313.63,24.19,0000 0000 0000 0000 000000
2014-04-11 02:13:13,0.44,3.55,0.00,22.77,28.22,30.97,5.83,31.00,985.23,2033.99,2258.19,2438.13,2628.05,350.35,314.55,24.19,0000 0000 0000 0000 000000
2014-04-11 02:14:13,0.21,3.55,0.00,22.77,28.22,30.98,5.88,31.08,985.22,2033.99,2257.52,2437.70,2627.48,350.09,314.29,24.20,0000 0000 0000 0000 000000
2014-04-11 02:15:13,0.47,3.56,0.00,22.78,28.22,31.00,5.93,31.25,985.10,2033.99,2256.93,2437.26,2627.13,349.15,313.39,24.21,0000 0000 0000 0000 000000
2014-04-11 02:16:13,0.33,3.56,0.00,22.78,28.22,30.98,5.97,31.58,985.04,2033.99,2256.31,2436.97,2626.60,349.67,313.83,24.21,0000 0000 0000 0000 000000
2014-04-11 02:17:14,0.35,3.56,0.00,22.78,28.22,31.01,5.94,31.38,984.93,2033.99,2255.62,2436.44,2626.22,351.02,315.02,24.22,0000 0000 0000 0000 000000
2014-04-11 02:18:14,0.44,3.56,0.00,22.78,28.22,31.04,5.84,31.21,984.91,2033.99,2255.07,2436.14,2625.76,349.72,313.84,24.22,0000 0000 0000 0000 000000
2014-04-11 02:19:14,0.33,3.56,0.00,22.77,28.22,31.02,5.67,31.21,984.89,2033.99,2254.43,2435.73,2625.29,348.80,313.02,24.23,0000 0000 0000 0000 000000
2014-04-11 02:20:14,0.40,3.57,0.00,22.77,28.22,31.00,5.93,31.17,984.89,2033.99,2253.81,2435.27,2624.97,350.36,314.42,24.24,0000 0000 0000 0000 000000
2014-04-11 02:21:15,0.35,3.57,0.00,22.77,28.22,30.97,5.75,31.25,984.88,2033.99,2253.20,2434.97,2624.41,348.93,313.14,24.24,0000 0000 0000 0000 000000
2014-04-11 02:22:15,0.35,3.57,0.00,22.78,28.22,31.04,5.63,30.92,984.88,2033.99,2252.53,2434.42,2624.09,348.81,312.82,24.25,0000 0000 0000 0000 000000
2014-04-11 02:23:15,0.44,3.57,0.00,22.79,28.22,31.01,5.74,30.96,984.86,2033.99,2252.01,2434.13,2623.58,349.66,313.98,24.25,0000 0000 0000 0000 000000
2014-04-11 02:24:15,0.32,3.58,0.00,22.79,28.22,30.98,5.75,31.25,984.87,2033.99,2251.40,2433.76,2623.21,349.16,313.22,24.26,0000 0000 0000 0000 000000
2014-04-11 02:25:15,0.35,3.58,0.00,22.79,28.22,30.98,5.98,31.25,984.77,2033.99,2250.85,2433.29,2622.99,350.65,314.62,24.27,0000 0000 0000 0000 000000
2014-04-11 02:26:15,0.33,3.58,0.00,22.79,28.22,31.00,5.79,31.17,984.67,2033.99,2250.30,2433.10,2622.48,349.93,313.94,24.27,0000 0000 0000 0000 000000
2014-04-11 02:27:16,0.32,3.58,0.00,22.79,28.22,30.98,5.85,31.13,984.54,2033.99,2249.69,2432.69,2622.17,349.73,313.53,24.28,0000 0000 0000 0000 000000
2014-04-11 02:28:16,0.36,3.58,0.00,22.79,28.22,31.00,5.82,31.33,984.44,2033.99,2249.07,2432.25,2621.73,349.74,313.70,24.28,0000 0000 0000 0000 000000
2014-04-11 02:29:16,0.37,3.59,0.00,22.79,28.22,31.02,5.66,31.29,984.41,2033.99,2248.42,2431.98,2621.26,349.96,313.82,24.29,0000 0000 0000 0000 000000
2014-04-11 02:30:16,0.35,3.59,0.00,22.78,28.22,31.02,5.88,31.54,984.40,2033.99,2247.76,2431.43,2620.81,350.48,314.65,24.29,0000 0000 0000 0000 000000
2014-04-11 02:31:16,0.45,3.59,0.00,22.77,28.22,31.03,5.87,31.38,984.39,2033.99,2247.15,2431.14,2620.30,349.79,313.85,24.30,0000 0000 0000 0000 000000
2014-04-11 02:32:17,0.35,3.59,0.00,22.77,28.22,30.95,5.91,31.46,984.39,2033.99,2246.49,2430.70,2619.95,349.95,313.99,24.31,0000 0000 0000 0000 000000
2014-04-11 02:33:17,0.37,3.60,0.00,22.77,28.22,30.98,5.66,31.29,984.39,2033.99,2245.95,2430.27,2619.39,349.06,313.10,24.31,0000 0000 0000 0000 000000
2014-04-11 02:34:17,0.37,3.60,0.00,22.77,28.22,31.01,5.76,31.50,984.30,2033.99,2245.37,2430.07,2619.11,350.29,314.21,24.32,0000 0000 0000 0000 000000
2014-04-11 02:35:17,0.29,3.60,0.00,22.77,28.22,30.95,6.01,31.42,984.16,2033.99,2244.81,2429.55,2618.61,351.15,314.44,24.32,0000 0000 0000 0000 000000
2014-04-11 02:36:17,0.42,3.60,0.00,22.77,28.22,30.95,6.05,31.46,984.11,2033.98,2244.26,2429.19,2618.21,350.11,314.12,24.33,0000 0000 0000 0000 000000
2014-04-11 02:37:18,0.32,3.60,0.00,22.77,28.22,30.99,5.96,31.29,984.09,2033.98,2243.61,2428.95,2617.88,351.13,314.68,24.34,0000 0000 0000 0000 000000